Fecha, hora, temperatura, viento dirección y velocidad, humedad y presión.

  • 26-02-2020 17:00:00 | 1.80°C | Oeste |20.00 km/h | 80.00% | 851.60 hPa
  • 26-02-2020 16:00:00 | 1.90°C | Oeste |19.00 km/h | 80.00% | 851.40 hPa
  • 26-02-2020 15:00:00 | 1.80°C | Oeste |19.00 km/h | 91.00% | 851.80 hPa
  • 26-02-2020 14:00:00 | 1.40°C | Oeste |20.00 km/h | 93.00% | 852.30 hPa
  • 26-02-2020 12:00:00 | 0.40°C | Oeste |27.00 km/h | 91.00% | 852.50 hPa
  • 26-02-2020 12:00:00 | 0.40°C | Oeste |27.00 km/h | 91.00% | 852.50 hPa
  • 26-02-2020 11:00:00 | -0.50°C | Oeste |29.00 km/h | 91.00% | 852.30 hPa
  • 26-02-2020 10:00:00 | -0.70°C | Oeste |30.00 km/h | 91.00% | 852.00 hPa
  • 26-02-2020 09:00:00 | -0.70°C | Oeste |34.00 km/h | 89.00% | 851.60 hPa
  • 26-02-2020 08:00:00 | -0.90°C | Oeste |34.00 km/h | 91.00% | 850.80 hPa
  • 26-02-2020 07:00:00 | -0.80°C | Oeste |35.00 km/h | 87.00% | 850.80 hPa
  • 26-02-2020 06:00:00 | -1.00°C | Oeste |35.00 km/h | 90.00% | 850.70 hPa
  • 26-02-2020 05:00:00 | -0.80°C | Oeste |37.00 km/h | 87.00% | 850.60 hPa
  • 26-02-2020 04:00:00 | -0.40°C | Oeste |33.00 km/h | 84.00% | 850.90 hPa
  • 26-02-2020 02:00:00 | -0.50°C | Oeste |30.00 km/h | 85.00% | 851.50 hPa
  • 26-02-2020 02:00:00 | -0.50°C | Oeste |30.00 km/h | 85.00% | 851.50 hPa
  • 26-02-2020 01:00:00 | -0.80°C | Oeste |25.00 km/h | 86.00% | 851.40 hPa
  • 26-02-2020 00:00:00 | -0.10°C | Oeste |30.00 km/h | 83.00% | 851.60 hPa
  • 25-02-2020 23:00:00 | 0.20°C | Oeste |32.00 km/h | 85.00% | 851.50 hPa
  • 25-02-2020 22:00:00 | 0.70°C | Oeste |27.00 km/h | 86.00% | 851.30 hPa
  • 25-02-2020 21:00:00 | 1.40°C | Oeste |32.00 km/h | 84.00% | 851.30 hPa
  • 25-02-2020 20:00:00 | 2.00°C | Oeste |31.00 km/h | 84.00% | 851.40 hPa
  • 25-02-2020 19:00:00 | 2.50°C | Oeste |27.00 km/h | 84.00% | 850.80 hPa
  • 25-02-2020 18:00:00 | 3.40°C | Oeste |27.00 km/h | 85.00% | 850.70 hPa
    • diseño web asturias Información sobre el estado de las mareas, altura de la marejada, temperatura del agua y otros datos de Gijón en Asturias.

      Surf Gijón